TimeEDT,TemperatureF,Dew PointF,Humidity,Sea Level PressureIn,VisibilityMPH,Wind Direction,Wind SpeedMPH,Gust SpeedMPH,PrecipitationIn,Events,Conditions,WindDirDegrees,DateUTC
12:12 AM,35.6,30.9,83,30.26,10.0,North,4.6,-,N/A,,Overcast,350,2012-10-28 04:12:00
12:32 AM,35.6,31.1,84,30.26,10.0,North,6.9,-,N/A,,Overcast,350,2012-10-28 04:32:00
12:52 AM,35.6,30.9,83,30.26,10.0,North,6.9,-,N/A,,Overcast,360,2012-10-28 04:52:00
1:12 AM,35.2,30.7,84,30.26,10.0,North,6.9,-,N/A,,Mostly Cloudy,360,2012-10-28 05:12:00
1:32 AM,35.4,30.2,81,30.26,10.0,North,8.1,-,N/A,,Scattered Clouds,350,2012-10-28 05:32:00
1:52 AM,34.9,29.8,82,30.26,10.0,North,8.1,-,N/A,,Scattered Clouds,350,2012-10-28 05:52:00
2:10 AM,34.9,29.7,81,30.27,10.0,North,6.9,-,N/A,,Clear,350,2012-10-28 06:10:00
2:30 AM,34.9,29.3,80,30.27,10.0,North,5.8,-,N/A,,Mostly Cloudy,350,2012-10-28 06:30:00
2:50 AM,35.2,29.1,78,30.27,10.0,North,8.1,-,N/A,,Overcast,350,2012-10-28 06:50:00
3:10 AM,34.9,28.9,79,30.27,10.0,North,5.8,-,N/A,,Overcast,350,2012-10-28 07:10:00
3:30 AM,35.8,28.4,75,30.27,10.0,North,8.1,-,N/A,,Overcast,350,2012-10-28 07:30:00
3:50 AM,35.2,27.9,74,30.26,10.0,North,8.1,-,N/A,,Mostly Cloudy,360,2012-10-28 07:50:00
4:10 AM,35.1,27.7,74,30.26,10.0,North,8.1,-,N/A,,Scattered Clouds,350,2012-10-28 08:10:00
4:30 AM,34.7,27.7,76,30.26,10.0,North,6.9,-,N/A,,Clear,350,2012-10-28 08:30:00
4:51 AM,34.3,27.5,76,30.25,10.0,North,8.1,-,N/A,,Clear,360,2012-10-28 08:51:00
5:11 AM,34.2,27.5,77,30.26,10.0,North,6.9,-,N/A,,Clear,350,2012-10-28 09:11:00
5:31 AM,33.6,27.3,78,30.27,10.0,North,4.6,-,N/A,,Clear,350,2012-10-28 09:31:00
5:51 AM,32.5,27.1,80,30.26,10.0,North,4.6,-,N/A,,Clear,350,2012-10-28 09:51:00
6:11 AM,32.4,27.1,81,30.27,10.0,North,5.8,-,N/A,,Clear,350,2012-10-28 10:11:00
6:31 AM,32.4,26.6,79,30.27,10.0,NNW,4.6,-,N/A,,Clear,340,2012-10-28 10:31:00
6:51 AM,32.4,26.6,79,30.27,10.0,North,8.1,-,N/A,,Clear,350,2012-10-28 10:51:00
7:11 AM,32.9,27.1,79,30.26,10.0,North,8.1,-,N/A,,Clear,350,2012-10-28 11:11:00
7:31 AM,32.9,27.5,81,30.26,10.0,North,8.1,-,N/A,,Clear,360,2012-10-28 11:31:00
7:52 AM,32.2,28.2,85,30.26,10.0,North,8.1,-,N/A,,Clear,360,2012-10-28 11:52:00
8:12 AM,32.0,28.6,87,30.26,10.0,North,8.1,-,N/A,,Clear,350,2012-10-28 12:12:00
8:32 AM,32.2,29.3,89,30.27,10.0,NNW,8.1,-,N/A,,Scattered Clouds,340,2012-10-28 12:32:00
8:52 AM,32.7,29.7,88,30.27,10.0,North,10.4,-,N/A,,Clear,350,2012-10-28 12:52:00
9:12 AM,33.8,30.4,87,30.26,10.0,North,11.5,-,N/A,,Mostly Cloudy,350,2012-10-28 13:12:00
9:32 AM,35.6,30.4,81,30.26,10.0,North,11.5,20.7,N/A,,Mostly Cloudy,360,2012-10-28 13:32:00
9:53 AM,36.5,29.7,76,30.26,10.0,North,13.8,20.7,N/A,,Scattered Clouds,360,2012-10-28 13:53:00
10:13 AM,36.9,29.5,75,30.26,10.0,North,10.4,17.3,N/A,,Mostly Cloudy,360,2012-10-28 14:13:00
10:53 AM,40.1,29.7,66,30.26,10.0,North,9.2,-,N/A,,Overcast,10,2012-10-28 14:53:00
11:13 AM,40.1,28.2,63,30.26,10.0,North,10.4,18.4,N/A,,Mostly Cloudy,10,2012-10-28 15:13:00
11:33 AM,41.5,27.9,58,30.27,10.0,NNE,13.8,20.7,N/A,,Overcast,30,2012-10-28 15:33:00
11:53 AM,44.1,27.5,52,30.26,10.0,NNE,15.0,19.6,N/A,,Overcast,20,2012-10-28 15:53:00
12:13 PM,44.8,27.5,51,30.26,10.0,NE,18.4,24.2,N/A,,Mostly Cloudy,40,2012-10-28 16:13:00
12:33 PM,45.5,28.4,51,30.25,10.0,NNE,15.0,24.2,N/A,,Mostly Cloudy,30,2012-10-28 16:33:00
12:54 PM,46.8,29.7,51,30.24,10.0,NNE,15.0,23.0,N/A,,Mostly Cloudy,30,2012-10-28 16:54:00
1:14 PM,45.5,29.3,53,30.23,10.0,NE,15.0,23.0,N/A,,Mostly Cloudy,40,2012-10-28 17:14:00
1:34 PM,46.8,30.0,52,30.22,10.0,North,15.0,20.7,N/A,,Scattered Clouds,10,2012-10-28 17:34:00
1:54 PM,47.5,29.3,49,30.22,10.0,NE,13.8,18.4,N/A,,Scattered Clouds,40,2012-10-28 17:54:00
2:14 PM,48.6,27.5,44,30.21,10.0,North,17.3,25.3,N/A,,Mostly Cloudy,350,2012-10-28 18:14:00
2:34 PM,48.9,26.1,41,30.21,10.0,NNE,13.8,19.6,N/A,,Mostly Cloudy,20,2012-10-28 18:34:00
2:54 PM,48.7,25.5,40,30.19,10.0,North,13.8,19.6,N/A,,Mostly Cloudy,350,2012-10-28 18:54:00
3:09 PM,47.8,24.4,40,30.19,10.0,NNE,16.1,20.7,N/A,,Mostly Cloudy,20,2012-10-28 19:09:00
3:30 PM,47.5,23.9,40,30.19,10.0,North,12.7,18.4,N/A,,Mostly Cloudy,10,2012-10-28 19:30:00
3:50 PM,48.2,23.7,38,30.20,10.0,North,13.8,18.4,N/A,,Mostly Cloudy,360,2012-10-28 19:50:00
4:10 PM,48.2,22.6,37,30.19,10.0,North,15.0,19.6,N/A,,Mostly Cloudy,360,2012-10-28 20:10:00
4:30 PM,47.3,23.0,38,30.19,10.0,North,9.2,18.4,N/A,,Mostly Cloudy,10,2012-10-28 20:30:00
4:50 PM,46.6,20.7,36,30.19,10.0,North,11.5,17.3,N/A,,Scattered Clouds,360,2012-10-28 20:50:00
5:10 PM,47.8,19.6,33,30.19,10.0,NNE,13.8,20.7,N/A,,Clear,30,2012-10-28 21:10:00
5:30 PM,47.1,20.1,34,30.19,10.0,NNE,10.4,19.6,N/A,,Clear,20,2012-10-28 21:30:00
5:50 PM,45.7,19.9,36,30.19,10.0,North,10.4,17.3,N/A,,Clear,10,2012-10-28 21:50:00
6:10 PM,45.7,18.3,34,30.19,10.0,NNE,12.7,20.7,N/A,,Clear,20,2012-10-28 22:10:00
6:31 PM,44.4,18.9,36,30.19,10.0,NNE,8.1,-,N/A,,Clear,20,2012-10-28 22:31:00
6:51 PM,43.9,19.9,38,30.20,10.0,North,9.2,16.1,N/A,,Clear,10,2012-10-28 22:51:00
7:11 PM,42.3,21.9,44,30.21,10.0,NE,6.9,-,N/A,,Clear,40,2012-10-28 23:11:00
7:31 PM,41.9,21.2,44,30.21,10.0,NNE,8.1,-,N/A,,Clear,30,2012-10-28 23:31:00
7:51 PM,41.4,20.7,44,30.22,10.0,NNE,9.2,-,N/A,,Clear,20,2012-10-28 23:51:00
8:11 PM,41.5,20.8,44,30.22,10.0,NNE,10.4,18.4,N/A,,Clear,30,2012-10-29 00:11:00
8:31 PM,40.6,21.0,46,30.22,10.0,NNE,12.7,18.4,N/A,,Clear,20,2012-10-29 00:31:00
9:12 PM,39.6,21.9,49,30.22,10.0,NNE,6.9,-,N/A,,Clear,20,2012-10-29 01:12:00
9:32 PM,39.6,21.9,49,30.22,10.0,North,11.5,17.3,N/A,,Clear,10,2012-10-29 01:32:00
9:52 PM,39.2,22.3,51,30.22,10.0,North,6.9,-,N/A,,Clear,10,2012-10-29 01:52:00
10:12 PM,38.7,22.8,53,30.22,10.0,North,8.1,-,N/A,,Clear,360,2012-10-29 02:12:00
10:32 PM,37.9,23.0,55,30.22,10.0,North,5.8,-,N/A,,Clear,350,2012-10-29 02:32:00
10:52 PM,36.7,23.5,59,30.21,10.0,NNW,5.8,-,N/A,,Clear,330,2012-10-29 02:52:00
11:32 PM,37.9,24.8,59,30.20,10.0,North,9.2,-,N/A,,Clear,350,2012-10-29 03:32:00
11:53 PM,37.4,25.3,62,30.20,10.0,NNW,9.2,-,N/A,,Clear,340,2012-10-29 03:53:00